Location: Demmingen
(48.6757°N, 10.4375°E)
Time: 04:34:13
(UTC+00:00)

CZ-2C R/B - Pass Details

Date: 13 August 2024
Orbit: 782 x 869 km, 98.3° (Epoch: 08 September)

Event Time Altitude Azimuth Distance (km) Brightness Sun altitude
Exits shadow 01:33:23 40° 207° (SSW) 1,224 3.0 -20.5°
Maximum altitude 01:35:03 56° 260° (W) 1,005 2.8 -20.3°
Drops below altitude 10° 01:40:23 10° 338° (NNW) 2,448 5.5 -19.8°
Sets 01:42:47 0° 343° (NNW) 3,372 6.4 -19.6°
